Location: Passau
(48.5830°N, 13.4830°E)
Time: 09:36:20
(UTC+01:00)

NOAA 19 - Pass Details

Date: 05 December 2021
Orbit: 841 x 860 km, 99.2° (Epoch: 26 January)

Event Time Altitude Azimuth Distance (km) Brightness Sun altitude
Rises 06:11:10 0° 32° (NNE) 3,432 8.6 -14.3°
Reaches altitude 10° 06:15:08 10° 61° (ENE) 2,493 8.3 -13.7°
Maximum altitude 06:17:29 13° 86° (E) 2,305 8.6 -13.3°
Drops below altitude 10° 06:19:49 10° 111° (ESE) 2,490 9.2 -12.9°
Sets 06:23:45 0° 140° (SE) 3,423 9.5 -12.3°
